Tracking 30923 objects as of 1-Jul-2025
HD Live streaming from Space Station
objects crossing your sky now

DELTA 1 DEB

Track DELTA 1 DEB now!
10-day predictions


NORAD ID: 7907
Int'l Code: 1972-058BS
Perigee: 677.9 km
Apogee: 1,070.5 km
Inclination: 97.7 °
Period: 102.3 minutes
Semi major axis: 7245 km
RCS: 0.1507 m2 (medium)
Launch date: July 23, 1972
Source: United States (US)
Launch site: AIR FORCE WESTERN TEST RANGE (AFWTR)

Note: This is SATELLITE DEBRIS
Your satellite tracking list
OPTUS A2 R/B(PAM-D)
Track 1 satellite(s)




NASA's NSSDC Master Catalog

Two Line Element Set (TLE):
1  7907U 72058BS  25181.82044832  .00000786  00000-0  34692-3 0  9991
2  7907  97.6758  16.8079 0270884 170.9142 189.7079 14.07758601549931
Source of the keplerian elements: AFSPC